EW1036 Weather Reports


Display with metric or nautical units.
time (UTC)temp
F
wind
direction
speed
MPH
gust
MPH
rain 1hr
in
rain 24hr
in
rain mn
in
humidity
%
barometer
mb
20260904181551 89 0 0.0 0.0 0.00 0.00 0.00 80 1015.1
20260904181032 89 0 0.0 0.0 0.00 0.00 0.00 80 1015.2
20260904180532 89 0 0.0 0.0 0.00 0.00 0.00 80 1015.3
20260904175532 89 0 0.0 0.0 0.00 0.00 0.00 79 1015.4
20260904175032 90 0 0.0 0.0 0.00 0.00 0.00 80 1015.4
20260904174614 90 0 0.0 0.0 0.00 0.00 0.00 77 1015.5
20260904174032 90 0 0.0 0.0 0.00 0.00 0.00 76 1015.5
20260904173532 90 0 0.0 0.0 0.00 0.00 0.00 79 1015.5
20260904173052 90 0 0.0 0.0 0.00 0.00 0.00 77 1015.4
20260904172533 91 0 0.0 0.0 0.00 0.00 0.00 77 1015.5
20260904172031 90 0 0.0 0.0 0.00 0.00 0.00 73 1015.5
20260904171602 91 0 0.0 0.0 0.00 0.00 0.00 76 1015.5
20260904171035 91 0 0.0 0.0 0.00 0.00 0.00 76 1015.6
20260904170532 91 0 0.0 0.0 0.00 0.00 0.00 76 1015.6
20260904170053 90 0 0.0 0.0 0.00 0.00 0.00 78 1015.7
20260904165535 91 0 0.0 0.0 0.00 0.00 0.00 75 1015.8
20260904165035 91 0 0.0 0.0 0.00 0.00 0.00 76 1016.0
20260904164553 91 0 0.0 0.0 0.00 0.00 0.00 74 1016.0
20260904164035 91 0 0.0 0.0 0.00 0.00 0.00 75 1016.1
20260904163535 90 0 0.0 0.0 0.00 0.00 0.00 77 1016.0
20260904163103 90 0 0.0 0.0 0.00 0.00 0.00 78 1016.0
20260904162535 91 0 0.0 0.0 0.00 0.00 0.00 77 1016.1
20260904162035 91 0 0.0 0.0 0.00 0.00 0.00 79 1016.2
20260904161607 90 0 0.0 0.0 0.00 0.00 0.00 78 1016.4
20260904161034 91 0 0.0 0.0 0.00 0.00 0.00 78 1016.4
20260904160533 90 0 0.0 0.0 0.00 0.00 0.00 76 1016.6
20260904160100 90 0 0.0 0.0 0.00 0.00 0.00 79 1016.6
20260904155535 92 0 0.0 0.0 0.00 0.00 0.00 77 1016.7
20260904155032 91 0 0.0 0.0 0.00 0.00 0.00 77 1016.7
20260904154553 91 0 0.0 0.0 0.00 0.00 0.00 78 1016.6
20260904154035 91 0 0.0 0.0 0.00 0.00 0.00 77 1016.6
20260904153532 91 0 0.0 0.0 0.00 0.00 0.00 76 1016.6
20260904153110 90 0 0.0 0.0 0.00 0.00 0.00 79 1016.6
20260904152534 90 0 0.0 0.0 0.00 0.00 0.00 79 1016.6
20260904152034 89 0 0.0 0.0 0.00 0.00 0.00 78 1016.6
20260904151606 90 0 0.0 0.0 0.00 0.00 0.00 78 1016.5
20260904151036 90 0 0.0 0.0 0.00 0.00 0.00 77 1016.6
20260904150535 89 0 0.0 0.0 0.00 0.00 0.00 81 1016.6
20260904150055 89 0 0.0 0.0 0.00 0.00 0.00 83 1016.6
20260904145535 89 0 0.0 0.0 0.00 0.00 0.00 80 1016.6
20260904145036 89 0 0.0 0.0 0.00 0.00 0.00 84 1016.7
20260904144553 88 0 0.0 0.0 0.00 0.00 0.00 83 1016.8
20260904144035 88 0 0.0 0.0 0.00 0.00 0.00 83 1016.7
20260904143532 88 0 0.0 0.0 0.00 0.00 0.00 84 1016.6
20260904143048 87 0 0.0 0.0 0.00 0.00 0.00 84 1016.7
20260904142534 87 0 0.0 0.0 0.00 0.00 0.00 84 1016.7
20260904142036 86 0 0.0 0.0 0.00 0.00 0.00 85 1016.7
20260904141558 86 0 0.0 0.0 0.00 0.00 0.00 86 1016.6
20260904141033 85 0 0.0 0.0 0.00 0.00 0.00 87 1016.6
20260904140533 85 0 0.0 0.0 0.00 0.00 0.00 87 1016.5
20260904140058 85 0 0.0 0.0 0.00 0.00 0.00 87 1016.5
20260904135534 85 0 0.0 0.0 0.00 0.00 0.00 86 1016.6
20260904135035 85 0 0.0 1.0 0.00 0.00 0.00 88 1016.6
20260904134554 85 0 0.0 1.0 0.00 0.00 0.00 85 1016.5
20260904134032 86 0 0.0 1.0 0.00 0.00 0.00 87 1016.5
20260904133532 85 0 0.0 0.0 0.00 0.00 0.00 87 1016.5
20260904133103 85 0 0.0 0.0 0.00 0.00 0.00 89 1016.5
20260904132532 84 0 0.0 0.0 0.00 0.00 0.00 89 1016.5
20260904132033 84 0 0.0 0.0 0.00 0.00 0.00 91 1016.6
20260904131553 83 0 0.0 0.0 0.00 0.00 0.00 92 1016.5
20260904131032 82 0 0.0 0.0 0.00 0.00 0.00 91 1016.5
20260904130532 82 0 0.0 0.0 0.00 0.00 0.00 93 1016.6
20260904130053 83 0 0.0 0.0 0.00 0.00 0.00 93 1016.6
20260904125532 82 0 0.0 0.0 0.00 0.00 0.00 93 1016.6
20260904125035 82 0 0.0 0.0 0.00 0.00 0.00 95 1016.5
20260904124547 81 0 0.0 0.0 0.00 0.00 0.00 96 1016.7
20260904124031 80 0 0.0 0.0 0.00 0.00 0.00 97 1016.5
20260904123533 80 0 0.0 0.0 0.00 0.00 0.00 97 1016.6
20260904123045 79 0 0.0 0.0 0.00 0.00 0.00 97 1016.6
20260904122532 79 0 0.0 0.0 0.00 0.00 0.00 97 1016.6
20260904122032 79 0 0.0 0.0 0.00 0.00 0.00 97 1016.6
20260904121553 79 0 0.0 0.0 0.00 0.00 0.00 97 1016.7
20260904121032 79 0 0.0 0.0 0.00 0.00 0.00 96 1016.6
20260904120532 79 0 0.0 0.0 0.00 0.00 0.00 96 1016.5
20260904120107 79 0 0.0 0.0 0.00 0.00 0.00 96 1016.5
20260904115532 79 0 0.0 0.0 0.00 0.00 0.00 97 1016.5
20260904115032 79 0 0.0 0.0 0.00 0.00 0.00 97 1016.5
20260904114547 78 0 0.0 0.0 0.00 0.00 0.00 96 1016.5
20260904114030 78 0 0.0 0.0 0.00 0.00 0.00 96 1016.6
20260904113532 78 0 0.0 0.0 0.00 0.00 0.00 96 1016.5
20260904113045 78 0 0.0 0.0 0.00 0.00 0.00 96 1016.6
20260904112532 78 0 0.0 0.0 0.00 0.00 0.00 96 1016.6
20260904112032 78 0 0.0 0.0 0.00 0.00 0.00 96 1016.6
20260904111554 78 0 0.0 0.0 0.00 0.00 0.00 96 1016.5
20260904111029 78 0 0.0 0.0 0.00 0.00 0.00 96 1016.5
20260904110550 78 0 0.0 0.0 0.00 0.00 0.00 96 1016.4
20260904110054 78 0 0.0 0.0 0.00 0.00 0.00 96 1016.4
20260904105536 78 0 0.0 0.0 0.00 0.00 0.00 96 1016.3
20260904105033 78 0 0.0 0.0 0.00 0.00 0.00 96 1016.2
20260904104549 78 0 0.0 0.0 0.00 0.00 0.00 96 1016.3
20260904104034 78 0 0.0 0.0 0.00 0.00 0.00 96 1016.1
20260904103532 78 0 0.0 0.0 0.00 0.00 0.00 96 1016.0
20260904103101 78 0 0.0 0.0 0.00 0.00 0.00 96 1015.9
20260904102533 78 0 0.0 0.0 0.00 0.00 0.00 96 1016.0
20260904102029 78 0 0.0 0.0 0.00 0.00 0.00 96 1016.0
20260904101555 78 0 0.0 0.0 0.00 0.00 0.00 96 1016.0
20260904101031 78 0 0.0 0.0 0.00 0.00 0.00 96 1016.0
20260904100532 78 0 0.0 0.0 0.00 0.00 0.00 96 1015.9
20260904100053 78 0 0.0 0.0 0.00 0.00 0.00 96 1015.9
20260904095534 78 0 0.0 0.0 0.00 0.00 0.00 96 1015.8
20260904095034 78 0 0.0 0.0 0.00 0.00 0.00 96 1015.9
20260904094548 78 0 0.0 0.0 0.00 0.00 0.00 96 1015.9
20260904094035 79 0 0.0 0.0 0.00 0.00 0.00 96 1015.9
20260904093535 78 0 0.0 0.0 0.00 0.00 0.00 96 1016.0
20260904093106 79 0 0.0 0.0 0.00 0.00 0.00 96 1015.9
20260904092532 79 0 0.0 0.0 0.00 0.00 0.00 96 1016.0
20260904092036 79 0 0.0 0.0 0.00 0.00 0.00 96 1016.0
20260904091551 79 0 0.0 0.0 0.00 0.00 0.00 96 1016.1
20260904091034 79 0 0.0 0.0 0.00 0.00 0.00 96 1016.0
20260904090533 78 0 0.0 0.0 0.00 0.00 0.00 96 1016.0
20260904090057 78 0 0.0 0.0 0.00 0.00 0.00 96 1015.9
20260904085533 78 0 0.0 0.0 0.00 0.00 0.00 96 1016.0
20260904085033 78 0 0.0 0.0 0.00 0.00 0.00 96 1016.2
20260904084557 78 0 0.0 0.0 0.00 0.00 0.00 96 1016.1
20260904084030 78 0 0.0 0.0 0.00 0.00 0.00 96 1016.1
20260904083535 78 0 0.0 0.0 0.00 0.00 0.00 96 1016.0
20260904083052 78 0 0.0 0.0 0.00 0.00 0.00 96 1016.0
20260904082534 78 0 0.0 0.0 0.00 0.00 0.00 96 1016.2
20260904082031 78 0 0.0 0.0 0.00 0.00 0.00 96 1016.2
20260904081545 79 0 0.0 0.0 0.00 0.00 0.00 96 1016.2
20260904081033 79 0 0.0 0.0 0.00 0.00 0.00 96 1016.1
20260904080532 78 0 0.0 0.0 0.00 0.00 0.00 96 1016.1
20260904080057 79 0 0.0 0.0 0.00 0.00 0.00 96 1016.0
20260904075533 79 0 0.0 0.0 0.00 0.00 0.00 96 1016.1
20260904075033 79 0 0.0 0.0 0.00 0.00 0.00 96 1016.0
20260904074554 79 0 0.0 0.0 0.00 0.00 0.00 96 1016.0
20260904074034 79 0 0.0 0.0 0.00 0.00 0.00 96 1016.0
20260904073532 79 0 0.0 0.0 0.00 0.00 0.00 96 1016.0
20260904073056 79 0 0.0 0.0 0.00 0.00 0.00 96 1016.1
20260904072532 79 0 0.0 0.0 0.00 0.00 0.00 96 1016.2
20260904072031 79 0 0.0 0.0 0.00 0.00 0.00 96 1016.2
20260904071554 79 0 0.0 0.0 0.00 0.00 0.00 96 1016.1
20260904071032 79 0 0.0 0.0 0.00 0.00 0.00 96 1016.1
20260904070532 79 0 0.0 0.0 0.00 0.00 0.00 96 1016.1
20260904070047 79 0 0.0 0.0 0.00 0.00 0.00 96 1016.1
20260904065531 79 0 0.0 0.0 0.00 0.00 0.00 96 1016.1
20260904065031 79 0 0.0 0.0 0.00 0.00 0.00 96 1016.1
20260904064547 79 0 0.0 0.0 0.00 0.00 0.00 96 1016.2
20260904064032 79 0 0.0 0.0 0.00 0.00 0.00 96 1016.1
20260904063532 79 0 0.0 0.0 0.00 0.00 0.00 96 1016.2
20260904063054 79 0 0.0 0.0 0.00 0.00 0.00 96 1016.3
20260904062533 79 0 0.0 0.0 0.00 0.00 0.00 96 1016.3
20260904062031 79 0 0.0 0.0 0.00 0.00 0.00 96 1016.4
20260904061552 79 0 0.0 0.0 0.00 0.00 0.00 96 1016.3
20260904061034 79 0 0.0 0.0 0.00 0.00 0.00 96 1016.4
20260904060532 79 0 0.0 0.0 0.00 0.00 0.00 96 1016.4
20260904060045 79 0 0.0 0.0 0.00 0.00 0.00 96 1016.4
20260904055532 79 0 0.0 0.0 0.00 0.00 0.00 96 1016.5
20260904055032 79 0 0.0 0.0 0.00 0.00 0.00 96 1016.4
20260904054600 79 0 0.0 0.0 0.00 0.00 0.00 95 1016.6
20260904054033 79 0 0.0 0.0 0.00 0.00 0.00 95 1016.7
20260904053533 79 0 0.0 0.0 0.00 0.00 0.00 95 1016.7
20260904053130 79 0 0.0 0.0 0.00 0.00 0.00 95 1016.7
20260904052532 79 0 0.0 0.0 0.00 0.00 0.00 95 1016.7
20260904052036 79 0 0.0 0.0 0.00 0.00 0.00 95 1016.7
20260904051553 79 0 0.0 1.0 0.00 0.00 0.00 95 1016.8
20260904051032 79 0 0.0 1.0 0.00 0.00 0.00 95 1016.9
20260904050533 79 0 0.0 0.0 0.00 0.00 0.00 95 1017.0
20260904050101 79 0 0.0 0.0 0.00 0.00 0.00 95 1016.9
20260904045534 79 0 0.0 0.0 0.00 0.00 0.00 95 1017.1
20260904045033 79 0 0.0 0.0 0.00 0.00 0.00 95 1017.1
20260904044557 79 0 0.0 0.0 0.00 0.00 0.00 95 1017.2
20260904044032 79 0 0.0 0.0 0.00 0.00 0.00 95 1017.2
20260904043532 79 0 0.0 0.0 0.00 0.00 0.00 95 1017.2
20260904043054 79 0 0.0 0.0 0.00 0.00 0.00 95 1017.2
20260904042534 79 0 0.0 0.0 0.00 0.00 0.00 95 1017.2
20260904042032 79 0 0.0 0.0 0.00 0.00 0.00 95 1017.3
20260904041602 79 0 0.0 0.0 0.00 0.00 0.00 95 1017.2
20260904041033 79 0 0.0 0.0 0.00 0.00 0.00 94 1017.4
20260904040533 79 0 0.0 0.0 0.00 0.00 0.00 94 1017.3
20260904040047 80 0 0.0 0.0 0.00 0.00 0.00 94 1017.3
20260904035533 80 0 0.0 0.0 0.00 0.00 0.00 94 1017.3
20260904035032 80 0 0.0 0.0 0.00 0.00 0.00 94 1017.4
20260904034559 80 0 0.0 0.0 0.00 0.00 0.00 94 1017.6
20260904034032 80 0 0.0 0.0 0.00 0.00 0.00 94 1017.5
20260904033533 80 0 0.0 0.0 0.00 0.00 0.00 94 1017.6
20260904033103 80 0 0.0 0.0 0.00 0.00 0.00 94 1017.5
20260904032532 80 0 0.0 0.0 0.00 0.00 0.00 94 1017.6
20260904032034 80 0 0.0 0.0 0.00 0.00 0.00 94 1017.6
20260904031551 80 0 0.0 0.0 0.00 0.00 0.00 94 1017.6
20260904031034 80 0 0.0 0.0 0.00 0.00 0.00 94 1017.6
20260904030533 80 0 0.0 0.0 0.00 0.00 0.00 94 1017.6
20260904030049 80 0 0.0 0.0 0.00 0.00 0.00 94 1017.5
20260904025533 80 0 0.0 0.0 0.00 0.00 0.00 94 1017.5
20260904025032 80 0 0.0 0.0 0.00 0.00 0.00 94 1017.4
20260904024557 80 0 0.0 0.0 0.00 0.00 0.00 93 1017.5
20260904024033 80 0 0.0 0.0 0.00 0.00 0.00 93 1017.4
20260904023534 80 0 0.0 0.0 0.00 0.00 0.00 93 1017.4
20260904023055 80 0 0.0 0.0 0.00 0.00 0.00 93 1017.4
20260904022534 80 0 0.0 0.0 0.00 0.00 0.00 93 1017.5
20260904022033 80 0 0.0 0.0 0.00 0.00 0.00 93 1017.4
20260904021551 80 0 0.0 0.0 0.00 0.00 0.00 93 1017.3
20260904021033 80 0 0.0 0.0 0.00 0.00 0.00 93 1017.4
20260904020533 80 0 0.0 0.0 0.00 0.00 0.00 92 1017.5
20260904020059 80 0 0.0 0.0 0.00 0.00 0.00 92 1017.5
20260904015532 80 0 0.0 0.0 0.00 0.00 0.00 93 1017.5
20260904015033 80 0 0.0 0.0 0.00 0.00 0.00 93 1017.4
20260904014645 80 0 0.0 0.0 0.00 0.00 0.00 92 1017.4
20260904014032 80 0 0.0 0.0 0.00 0.00 0.00 92 1017.4
20260904013535 80 0 0.0 0.0 0.00 0.00 0.00 92 1017.4
20260904013105 81 0 0.0 0.0 0.00 0.00 0.00 92 1017.3
20260904012532 81 0 0.0 0.0 0.00 0.00 0.00 92 1017.1
20260904012034 81 0 0.0 0.0 0.00 0.00 0.00 92 1017.0
20260904011605 81 0 0.0 0.0 0.00 0.00 0.00 91 1017.0
20260904011033 81 0 0.0 0.0 0.00 0.00 0.00 91 1016.8
20260904010533 81 0 0.0 1.0 0.00 0.00 0.00 91 1016.7
20260904010058 81 0 0.0 1.0 0.00 0.00 0.00 90 1016.7
20260904005533 81 0 0.0 0.0 0.00 0.00 0.00 91 1016.7
20260904005033 81 0 0.0 0.0 0.00 0.00 0.00 90 1016.5
20260904004600 81 0 0.0 0.0 0.00 0.00 0.00 90 1016.3
20260904004033 81 0 0.0 0.0 0.00 0.00 0.00 90 1016.3
20260904003533 81 0 0.0 0.0 0.00 0.00 0.00 90 1016.2
20260904003109 81 0 0.0 0.0 0.00 0.00 0.00 90 1016.2
20260904002533 81 0 0.0 0.0 0.00 0.00 0.00 90 1016.1
20260904002033 81 0 0.0 0.0 0.00 0.00 0.00 89 1016.1
20260904001554 82 0 0.0 0.0 0.00 0.00 0.00 89 1016.0
20260904001034 82 0 0.0 0.0 0.00 0.00 0.00 89 1016.0
20260904000533 82 0 0.0 0.0 0.00 0.00 0.00 88 1015.9
20260904000052 82 0 0.0 0.0 0.00 0.00 0.00 88 1015.8
20260903235532 82 0 0.0 0.0 0.00 0.00 0.00 88 1015.7
20260903235034 82 0 0.0 0.0 0.00 0.00 0.00 88 1015.8
20260903234550 82 0 0.0 0.0 0.00 0.00 0.00 87 1015.8
20260903234033 82 0 0.0 0.0 0.00 0.00 0.00 87 1015.7
20260903233533 82 0 0.0 1.0 0.00 0.00 0.00 86 1015.7
20260903233055 82 0 0.0 1.0 0.00 0.00 0.00 86 1015.7
20260903232533 82 0 0.0 0.0 0.00 0.00 0.00 86 1015.7
20260903232032 82 0 0.0 1.0 0.00 0.00 0.00 87 1015.8
20260903231556 83 0 0.0 1.0 0.00 0.00 0.00 86 1015.9
20260903231032 83 0 0.0 1.0 0.00 0.00 0.00 84 1015.9
20260903230529 83 0 0.0 0.0 0.00 0.00 0.00 84 1015.9
20260903230105 83 0 0.0 0.0 0.00 0.00 0.00 83 1015.9
20260903225530 84 0 0.0 0.0 0.00 0.00 0.00 81 1016.0
20260903225030 84 0 0.0 0.0 0.00 0.00 0.00 80 1016.0
20260903224556 84 0 0.0 0.0 0.00 0.00 0.00 80 1016.0
20260903224033 84 0 0.0 0.0 0.00 0.00 0.00 79 1016.1
20260903223533 84 0 0.0 0.0 0.00 0.00 0.00 79 1016.2
20260903223050 84 0 0.0 0.0 0.00 0.00 0.00 79 1016.3
20260903222533 84 0 0.0 0.0 0.00 0.00 0.00 80 1016.2
20260903222033 84 0 0.0 0.0 0.00 0.00 0.00 78 1016.3
20260903221559 84 0 0.0 0.0 0.00 0.00 0.00 78 1016.2
20260903221034 84 0 0.0 0.0 0.00 0.00 0.00 80 1016.2
20260903220534 84 0 0.0 1.0 0.00 0.00 0.00 79 1016.1
20260903220105 84 0 0.0 1.0 0.00 0.00 0.00 79 1016.1
20260903215533 84 0 0.0 0.0 0.00 0.00 0.00 79 1016.1
20260903215034 84 0 0.0 0.0 0.00 0.00 0.00 80 1016.0
20260903214554 84 0 0.0 0.0 0.00 0.00 0.00 81 1016.1
20260903214033 85 0 0.0 0.0 0.00 0.00 0.00 80 1016.2
20260903213532 85 0 0.0 0.0 0.00 0.00 0.00 78 1016.1
20260903213052 85 0 0.0 0.0 0.00 0.00 0.00 78 1016.0
20260903212533 85 0 0.0 0.0 0.00 0.00 0.00 79 1015.9
20260903212032 85 0 0.0 0.0 0.00 0.00 0.00 78 1015.8
20260903211556 85 0 0.0 0.0 0.00 0.00 0.00 79 1015.6
20260903211033 85 0 0.0 0.0 0.00 0.00 0.00 79 1015.7
20260903210532 85 0 0.0 0.0 0.00 0.00 0.00 77 1015.6
20260903210100 85 0 0.0 0.0 0.00 0.00 0.00 78 1015.6
20260903205534 85 0 0.0 0.0 0.00 0.00 0.00 77 1015.5
20260903205032 85 0 0.0 0.0 0.00 0.00 0.00 79 1015.6
20260903204550 86 0 0.0 0.0 0.00 0.00 0.00 79 1015.6
20260903204035 86 0 0.0 0.0 0.00 0.00 0.00 76 1015.6
20260903203533 86 0 0.0 0.0 0.00 0.00 0.00 79 1015.7
20260903203047 86 0 0.0 0.0 0.00 0.00 0.00 77 1015.8
20260903202533 86 0 0.0 0.0 0.00 0.00 0.00 80 1016.0
20260903202033 87 0 0.0 0.0 0.00 0.00 0.00 78 1016.1
20260903201556 88 0 0.0 0.0 0.00 0.00 0.00 77 1016.0
20260903201033 87 0 0.0 0.0 0.00 0.00 0.00 75 1016.0
20260903200532 88 0 0.0 0.0 0.00 0.00 0.00 75 1016.2
20260903200055 88 0 0.0 0.0 0.00 0.00 0.00 71 1016.2
20260903195533 87 0 0.0 0.0 0.00 0.00 0.00 77 1016.2
20260903195032 88 0 0.0 0.0 0.00 0.00 0.00 75 1016.2
20260903194553 89 0 0.0 0.0 0.00 0.00 0.00 73 1016.2
20260903194032 88 0 0.0 0.0 0.00 0.00 0.00 76 1016.4
20260903193533 88 0 0.0 0.0 0.00 0.00 0.00 78 1016.4
20260903193051 88 0 0.0 0.0 0.00 0.00 0.00 77 1016.5
20260903192533 88 0 0.0 0.0 0.00 0.00 0.00 81 1016.6
20260903192031 88 0 0.0 0.0 0.00 0.00 0.00 80 1016.6
20260903191546 88 0 0.0 0.0 0.00 0.00 0.00 80 1016.7
20260903191033 89 0 0.0 0.0 0.00 0.00 0.00 79 1016.8
20260903190533 89 0 0.0 0.0 0.00 0.00 0.00 76 1016.7
20260903190058 89 0 0.0 0.0 0.00 0.00 0.00 79 1016.8
20260903185532 89 0 0.0 0.0 0.00 0.00 0.00 76 1016.9
20260903185032 88 0 0.0 0.0 0.00 0.00 0.00 79 1017.1
20260903184553 89 0 0.0 0.0 0.00 0.00 0.00 78 1017.1
20260903184034 90 0 0.0 0.0 0.00 0.00 0.00 74 1017.2
20260903183532 90 0 0.0 0.0 0.00 0.00 0.00 74 1017.2
20260903183055 89 0 0.0 0.0 0.00 0.00 0.00 81 1017.2
20260903182532 89 0 0.0 0.0 0.00 0.00 0.00 78 1017.3
20260903182033 90 0 0.0 0.0 0.00 0.00 0.00 78 1017.3